Terminal Aerodrome Forecast
Issued by NWS San Angelo, TX

Home | Current Version | Previous Version | Text Only | Print | Product List | Glossary On
Versions: 1 2 3 4 5 6 7 8 9 10 11 12 13 14 15 16 17 18 19 20 21 22
000
FTUS44 KSJT 192300
TAFABI
TAF
KABI 192328Z 2000/2024 12009KT P6SM SCT040 BKN100
     FM200900 15007KT P6SM OVC010
     FM201500 16007KT P6SM BKN015
     FM201800 16010KT P6SM SCT025 BKN050=

USA.gov is the U.S. government's official web portal to all federal, state and local government web resources and services.